Погода в Эль-Минье

Египет     28°16′55″N   30°09′21″E
темп.,
°C
ветер,
м/с
пор.,
м/с
влажн.,
%
обл.,
%
осадки,
мм/ч
давл.,
гПа
погр.,
м
21 апреля, ср
ср2123:00+20с1117350 0.0 1015396
02:00+17с916480 0.0 1015449
05:00+16с1017535 0.0 1015396
08:00+19ссв111440100 0.0 1016495
11:00+25ссв101121100 0.0 1016815
14:00+29с101114100 0.0 10141098
17:00+29с1011132 0.0 10141203
20:00+25с111722100 0.0 1016523
22 апреля, чт
чт2223:00+20ссв1016385 0.0 1017463
02:00+17с916530 0.0 1017369
05:00+15ссв916600 0.0 1017324
08:00+19ссв1115450 0.0 1018461
11:00+26ссв1011190 0.0 1018811
14:00+31ссв1010130 0.0 10151094
17:00+30ссв1010130 0.0 10151205
20:00+26с916170 0.0 1016335
23 апреля, пт
пт2323:00+20ссв1016330 0.0 1016386
02:00+17ссв815425 0.0 1016302
05:00+15ссв7145483 0.0 1016259
08:00+19ссв9133846 0.0 1016419
11:00+28ссв89155 0.0 1014844
14:00+32с88992 0.0 10121364
17:00+31с99125 0.0 10121192
20:00+25ссв59180 0.0 1013117
24 апреля, сб
сб2423:00+23ссв8142386 0.0 1013331
02:00+19ссв714323 0.0 1012254
05:00+17с6114631 0.0 1012201
08:00+21ссв810320 0.0 1012360
11:00+29ссв66160 0.0 1011847
14:00+33с669100 0.0 10091369
17:00+32с6710100 0.0 10081335
20:00+27ссз44145 0.0 101018
25 апреля, вс
вс2523:00+24ссв57225 0.0 101080
02:00+22ссв57270 0.0 100973
05:00+20св44260 0.0 100837
08:00+25в11170 0.0 1009181
11:00+33зюз3380 0.0 1009876
14:00+37з5670 0.0 10071696
17:00+37з5670 0.0 10052229
20:00+31зсз56100 0.0 100760